Arden, NC

12:59 AM EST on December 09, 2016 (GMT -0500)
Asheville Regional

Weather History for KAVL - December, 2010

Change the Weather History Date:

Monday, December 27, 2010

  Actual Average Record
Temperature  
Mean Temperature 23 °F 38 °F  
Max Temperature 27 °F 48 °F 72 °F (1971)
Min Temperature 18 °F 28 °F 3 °F (1925)
Degree Days  
Heating Degree Days 42 27  
Month to date heating degree days 933 682  
Since 1 July heating degree days 1744 1549  
Cooling Degree Days 0 0  
Month to date cooling degree days 0 0  
Year to date cooling degree days 1212 863  
Moisture  
Dew Point 13 °F    
Average Humidity 66    
Maximum Humidity 77    
Minimum Humidity 55    
Precipitation  
Precipitation 0.01 in 0.11 in 1.00 in (1875)
Month to date precipitation 1.26 3.18  
Year to date precipitation 44.26 45.16  
Snow  
Snow T in 0.00 in 2.00 in (1894)
Month to date snowfall 10.8 0.6  
Since 1 July snowfall 10.8 0.7  
Snow Depth 6.00 in    
Sea Level Pressure  
Sea Level Pressure 30.02 in    
Wind  
Wind Speed 17 mph (NNW)    
Max Wind Speed 36 mph    
Max Gust Speed 44 mph    
Visibility 6 miles    
Events Snow    
T = Trace of Precipitation, MM = Missing Value Source: NWS Daily Summary

Daily Weather History Graph

Daily Weather History Graph

Search for Another Location

Airport or City:

Trip Planner

Search our weather history database for the weather conditions in past years. The results will help you decide how hot, cold, wet, or windy it might be!

Date:

Astronomy

Dec. 27, 2010 Rise Set
Actual Time 7:37 AM EST 5:24 PM EST
Civil Twilight 7:09 AM EST 5:53 PM EST
Nautical Twilight 6:37 AM EST 6:24 PM EST
Astronomical Twilight 6:06 AM EST 6:55 PM EST
Moon No Moon Rise 11:42 AM EST (12/27)
Length of Visible Light 10h 43m
Length of Day
9h 46m
Waning Gibbous, 55% of the Moon is Illuminated
Dec 27
Waning Gibbous
Dec 27
Last Quarter
Jan 4
New
Jan 12
First Quarter
Jan 19
Full

Hourly Weather History & Observations

Time (EST) Temp. Windchill Dew Point Humidity Pressure Visibility Wind Dir Wind Speed Gust Speed Precip Events Conditions
12:02 AM 19.4 °F -0.3 °F 14.0 °F 80% 29.84 in 2.0 mi NNW 33.4 mph 42.6 mph N/A   Haze
12:10 AM 19.4 °F 0.2 °F 15.8 °F 86% 29.85 in 1.5 mi NNW 31.1 mph 43.7 mph 0.00 in   Haze
12:26 AM 19.4 °F 1.8 °F 15.8 °F 86% 29.86 in 3.0 mi NNW 25.3 mph 38.0 mph N/A   Haze
12:54 AM 19.9 °F 4.3 °F 15.1 °F 81% 29.93 in 5.0 mi NNW 19.6 mph 26.5 mph 0.01 in Snow Light Snow
1:54 AM 21.0 °F 6.2 °F 14.0 °F 74% 29.94 in 4.0 mi NNW 18.4 mph 34.5 mph 0.00 in Snow Light Snow
2:54 AM 21.0 °F 7.1 °F 15.1 °F 78% 29.95 in 3.0 mi NNW 16.1 mph - 0.00 in Snow Light Snow
3:54 AM 21.0 °F 5.4 °F 14.0 °F 74% 29.94 in 4.0 mi NW 20.7 mph 28.8 mph 0.00 in Snow Light Snow
4:07 AM 19.4 °F 1.8 °F 15.8 °F 86% 29.87 in 1.8 mi NW 25.3 mph 33.4 mph 0.00 in Snow Light Snow
4:35 AM 19.4 °F 4.5 °F 14.0 °F 80% 29.88 in 3.0 mi NW 17.3 mph 31.1 mph 0.00 in Snow Light Snow
4:48 AM 19.4 °F 2.8 °F 14.0 °F 80% 29.88 in 2.5 mi NW 21.9 mph 34.5 mph 0.00 in Snow Light Snow
4:54 AM 19.9 °F 1.5 °F 14.0 °F 78% 29.94 in 2.0 mi NNW 28.8 mph 38.0 mph 0.00 in Snow Light Snow
5:01 AM 19.4 °F 2.1 °F 14.0 °F 80% 29.88 in 1.5 mi NW 24.2 mph 38.0 mph 0.00 in Snow Light Snow
5:16 AM 19.4 °F -0.8 °F 12.2 °F 74% 29.89 in 1.0 mi NW 35.7 mph 42.6 mph 0.00 in Snow Light Snow
5:39 AM 19.4 °F 2.1 °F 12.2 °F 74% 29.93 in 2.0 mi NNW 24.2 mph 36.8 mph 0.00 in Snow Light Snow
5:54 AM 19.9 °F 4.8 °F 12.9 °F 74% 30.02 in 5.0 mi NNW 18.4 mph - 0.00 in Snow Light Snow
6:09 AM 19.4 °F 3.6 °F 12.2 °F 74% 29.96 in 4.0 mi NNW 19.6 mph 25.3 mph 0.00 in Snow Light Snow
6:54 AM 19.0 °F 4.5 °F 12.9 °F 77% 30.06 in 3.0 mi North 16.1 mph - 0.00 in Snow Light Snow
6:59 AM 19.4 °F 5.0 °F 12.2 °F 74% 29.99 in 2.0 mi North 16.1 mph - 0.00 in Snow Snow
7:14 AM 19.4 °F 5.5 °F 12.2 °F 74% 29.99 in 3.0 mi North 15.0 mph 26.5 mph 0.00 in Snow Light Snow
7:51 AM 19.4 °F 4.5 °F 12.2 °F 74% 29.99 in 2.5 mi North 17.3 mph 26.5 mph 0.00 in Snow Light Snow
7:54 AM 19.0 °F 4.5 °F 12.9 °F 77% 30.06 in 2.5 mi NNW 16.1 mph 26.5 mph 0.00 in Snow Light Snow
8:00 AM 17.6 °F 1.7 °F 12.2 °F 79% 29.99 in 3.0 mi NNW 18.4 mph 26.5 mph 0.00 in Snow Light Snow
8:07 AM 17.6 °F 1.3 °F 12.2 °F 79% 29.99 in 3.0 mi NNW 19.6 mph 25.3 mph N/A Snow Light Snow
8:14 AM 19.4 °F 2.8 °F 14.0 °F 80% 29.98 in 2.0 mi NNW 21.9 mph - 0.00 in Snow Light Snow
8:25 AM 19.4 °F 2.5 °F 14.0 °F 80% 29.98 in 1.5 mi NNW 23.0 mph 33.4 mph 0.00 in Snow Light Snow
8:49 AM 19.4 °F 2.8 °F 14.0 °F 80% 29.98 in 2.5 mi NNW 21.9 mph 33.4 mph 0.00 in Snow Light Snow
8:54 AM 19.0 °F 2.0 °F 14.0 °F 81% 30.05 in 2.5 mi NNW 23.0 mph 33.4 mph 0.00 in Snow Light Snow
9:03 AM 19.4 °F 4.1 °F 12.2 °F 74% 29.99 in 10.0 mi NNW 18.4 mph 31.1 mph 0.00 in   Scattered Clouds
9:26 AM 21.2 °F 7.3 °F 12.2 °F 68% 30.00 in 10.0 mi NNW 16.1 mph 26.5 mph 0.00 in   Partly Cloudy
9:27 AM 21.2 °F 7.3 °F 12.2 °F 68% 30.00 in 10.0 mi North 16.1 mph 26.5 mph 0.00 in   Clear
9:54 AM 21.9 °F 7.8 °F 12.0 °F 66% 30.09 in 10.0 mi North 17.3 mph 26.5 mph 0.00 in   Clear
10:54 AM 23.0 °F 7.2 °F 12.9 °F 65% 30.08 in 9.0 mi NNW 23.0 mph 36.8 mph N/A   Clear
11:54 AM 26.1 °F 13.6 °F 12.9 °F 58% 30.09 in 10.0 mi North 16.1 mph 25.3 mph N/A   Mostly Cloudy
12:54 PM 25.0 °F 10.2 °F 14.0 °F 63% 30.06 in 10.0 mi North 21.9 mph 33.4 mph N/A   Clear
1:54 PM 26.1 °F 14.0 °F 15.1 °F 63% 30.08 in 10.0 mi North 15.0 mph 23.0 mph N/A   Clear
2:54 PM 26.1 °F 13.6 °F 14.0 °F 60% 30.08 in 10.0 mi North 16.1 mph 24.2 mph N/A   Clear
3:54 PM 26.1 °F 13.6 °F 15.1 °F 63% 30.11 in 10.0 mi North 16.1 mph 25.3 mph N/A   Clear
4:54 PM 25.0 °F 14.2 °F 14.0 °F 63% 30.15 in 10.0 mi North 11.5 mph 18.4 mph N/A   Clear
5:54 PM 24.1 °F 17.0 °F 14.0 °F 65% 30.19 in 10.0 mi North 5.8 mph - N/A   Clear
6:54 PM 23.0 °F 17.0 °F 14.0 °F 68% 30.22 in 10.0 mi NNE 4.6 mph - N/A   Clear
7:54 PM 21.9 °F 12.5 °F 12.9 °F 68% 30.24 in 10.0 mi North 8.1 mph - N/A   Clear
8:54 PM 21.0 °F 11.4 °F 12.9 °F 71% 30.28 in 10.0 mi North 8.1 mph - N/A   Clear
9:54 PM 19.0 °F 7.5 °F 12.0 °F 74% 30.30 in 10.0 mi NW 10.4 mph - N/A   Clear
10:54 PM 19.0 °F 0.6 °F 12.0 °F 74% 30.25 in 10.0 mi NNW 27.6 mph - N/A   Clear
11:54 PM 18.0 °F -0.5 °F 12.0 °F 78% 30.21 in 10.0 mi NNW 26.5 mph 36.8 mph N/A   Clear